Torna al catalogo

BB 2

AttivoScienzaPO
NORAD 56170·PAYLOAD·🇺🇸 United States

Lanciato Apr 2, 2023 da Vandenberg Space Force Base

Loading…

Prossimi Passaggi (prossime 24 ore)

TLE

In scadenzaSource: Space-Track

Epoca: Sep 10, 2026, 17:47 UTC

1 56170U 23050J   26253.74145083  .00000416  00000-0  12482-3 0  9990
2 56170  81.0034 349.8747 0007486  55.8410 304.3486 14.41286348173917

Traccia BB 2 in tempo reale con AllMySat

Download on the App Store